Time,TemperatureF,DewpointF,PressureIn,WindDirection,WindDirectionDegrees,WindSpeedMPH,WindSpeedGustMPH,Humidity,HourlyPrecipIn,Conditions,Clouds,dailyrainin,SoftwareType,DateUTC
2013-06-03 00:09:00,38.8,37.0,32.15,West,261,4.0,8.0,93,0.00,,,0.00,weatherlink.com 1.10,2013-06-03 06:09:00,
2013-06-03 00:24:00,38.6,37.0,32.14,WNW,286,5.0,7.0,93,0.00,,,0.00,weatherlink.com 1.10,2013-06-03 06:24:00,
2013-06-03 00:39:00,38.6,37.0,32.15,WSW,248,4.0,6.0,93,0.00,,,0.00,weatherlink.com 1.10,2013-06-03 06:39:00,
2013-06-03 00:54:00,38.5,37.0,32.15,SW,232,5.0,8.0,94,0.00,,,0.00,weatherlink.com 1.10,2013-06-03 06:54:00,
2013-06-03 01:09:00,38.6,37.0,32.14,WSW,240,6.0,10.0,95,0.00,,,0.00,weatherlink.com 1.10,2013-06-03 07:09:00,
2013-06-03 01:24:00,38.2,36.0,32.15,West,264,9.0,12.0,93,0.00,,,0.00,weatherlink.com 1.10,2013-06-03 07:24:00,
2013-06-03 01:39:00,38.4,37.0,32.14,SW,216,12.0,12.0,94,0.00,,,0.00,weatherlink.com 1.10,2013-06-03 07:39:00,
2013-06-03 01:54:00,38.4,37.0,32.15,West,259,6.0,11.0,93,0.00,,,0.00,weatherlink.com 1.10,2013-06-03 07:54:00,
2013-06-03 02:09:00,38.5,36.0,32.15,WSW,246,7.0,10.0,91,0.00,,,0.00,weatherlink.com 1.10,2013-06-03 08:09:00,
2013-06-03 02:24:00,38.4,37.0,32.16,SW,235,9.0,9.0,94,0.00,,,0.00,weatherlink.com 1.10,2013-06-03 08:24:00,
2013-06-03 02:39:00,38.2,37.0,32.15,West,261,10.0,12.0,95,0.00,,,0.00,weatherlink.com 1.10,2013-06-03 08:39:00,
2013-06-03 02:54:00,38.0,37.0,32.15,WSW,240,11.0,14.0,95,0.00,,,0.00,weatherlink.com 1.10,2013-06-03 08:54:00,
2013-06-03 03:09:00,38.3,37.0,32.15,SW,236,7.0,10.0,93,0.00,,,0.00,weatherlink.com 1.10,2013-06-03 09:09:00,
2013-06-03 03:24:00,38.4,37.0,32.16,West,267,2.0,12.0,93,0.00,,,0.00,weatherlink.com 1.10,2013-06-03 09:24:00,
2013-06-03 03:39:00,38.4,36.0,32.16,SW,235,7.0,16.0,92,0.00,,,0.00,weatherlink.com 1.10,2013-06-03 09:39:00,
2013-06-03 03:54:00,38.3,37.0,32.16,SSW,196,5.0,12.0,94,0.00,,,0.00,weatherlink.com 1.10,2013-06-03 09:54:00,
2013-06-03 04:09:00,38.0,37.0,32.16,SW,223,9.0,15.0,95,0.00,,,0.00,weatherlink.com 1.10,2013-06-03 10:09:00,
2013-06-03 04:24:00,38.2,37.0,32.16,West,275,4.0,9.0,94,0.00,,,0.00,weatherlink.com 1.10,2013-06-03 10:24:00,
2013-06-03 04:40:00,38.3,37.0,32.17,WSW,244,2.0,8.0,94,0.00,,,0.00,weatherlink.com 1.10,2013-06-03 10:40:00,
2013-06-03 04:55:00,38.3,37.0,32.17,West,277,5.0,9.0,93,0.00,,,0.00,weatherlink.com 1.10,2013-06-03 10:55:00,
2013-06-03 05:10:00,38.1,37.0,32.17,WNW,292,4.0,7.0,94,0.00,,,0.00,weatherlink.com 1.10,2013-06-03 11:10:00,
2013-06-03 05:25:00,37.9,37.0,32.17,West,265,5.0,9.0,95,0.00,,,0.00,weatherlink.com 1.10,2013-06-03 11:25:00,
2013-06-03 05:40:00,38.0,37.0,32.18,WNW,288,11.0,14.0,95,0.01,,,0.01,weatherlink.com 1.10,2013-06-03 11:40:00,
2013-06-03 05:55:00,38.0,37.0,32.18,NW,309,6.0,11.0,95,0.01,,,0.01,weatherlink.com 1.10,2013-06-03 11:55:00,
2013-06-03 06:10:00,37.9,37.0,32.19,WNW,300,4.0,11.0,95,0.02,,,0.02,weatherlink.com 1.10,2013-06-03 12:10:00,
2013-06-03 06:25:00,37.9,37.0,32.20,WNW,296,6.0,7.0,95,0.02,,,0.02,weatherlink.com 1.10,2013-06-03 12:25:00,
2013-06-03 06:40:00,38.1,37.0,32.19,WNW,301,6.0,9.0,95,0.01,,,0.02,weatherlink.com 1.10,2013-06-03 12:40:00,
2013-06-03 06:55:00,38.2,37.0,32.20,WNW,301,2.0,11.0,96,0.00,,,0.02,weatherlink.com 1.10,2013-06-03 12:55:00,
2013-06-03 07:10:00,38.3,37.0,32.20,West,280,4.0,6.0,96,0.00,,,0.02,weatherlink.com 1.10,2013-06-03 13:10:00,
2013-06-03 07:25:00,38.3,37.0,32.20,WNW,288,6.0,8.0,95,0.00,,,0.02,weatherlink.com 1.10,2013-06-03 13:25:00,
2013-06-03 07:40:00,38.4,37.0,32.21,WNW,286,3.0,9.0,96,0.01,,,0.03,weatherlink.com 1.10,2013-06-03 13:40:00,
2013-06-03 07:55:00,38.5,38.0,32.22,West,279,3.0,11.0,96,0.01,,,0.03,weatherlink.com 1.10,2013-06-03 13:55:00,
2013-06-03 08:10:00,38.6,37.0,32.22,West,265,7.0,10.0,95,0.01,,,0.03,weatherlink.com 1.10,2013-06-03 14:10:00,
2013-06-03 08:25:00,38.6,37.0,32.23,WNW,286,8.0,9.0,95,0.01,,,0.03,weatherlink.com 1.10,2013-06-03 14:25:00,
2013-06-03 08:40:00,38.8,38.0,32.22,WSW,238,9.0,11.0,95,0.00,,,0.03,weatherlink.com 1.10,2013-06-03 14:40:00,
2013-06-03 08:55:00,39.7,38.0,32.23,West,261,5.0,13.0,94,0.00,,,0.03,weatherlink.com 1.10,2013-06-03 14:55:00,
2013-06-03 09:10:00,39.8,38.0,32.24,WNW,288,14.0,14.0,94,0.00,,,0.03,weatherlink.com 1.10,2013-06-03 15:10:00,
2013-06-03 09:25:00,40.0,38.0,32.24,WSW,253,7.0,11.0,92,0.00,,,0.03,weatherlink.com 1.10,2013-06-03 15:25:00,
2013-06-03 09:40:00,40.0,38.0,32.24,WNW,289,9.0,12.0,91,0.00,,,0.03,weatherlink.com 1.10,2013-06-03 15:40:00,
2013-06-03 09:55:00,40.2,38.0,32.24,WNW,284,5.0,9.0,91,0.00,,,0.03,weatherlink.com 1.10,2013-06-03 15:55:00,
2013-06-03 10:10:00,40.4,38.0,32.24,West,271,3.0,16.0,91,0.00,,,0.03,weatherlink.com 1.10,2013-06-03 16:10:00,
2013-06-03 10:25:00,40.6,38.0,32.24,WNW,283,7.0,10.0,91,0.00,,,0.03,weatherlink.com 1.10,2013-06-03 16:25:00,
2013-06-03 10:40:00,41.2,39.0,32.24,West,277,7.0,9.0,92,0.00,,,0.03,weatherlink.com 1.10,2013-06-03 16:40:00,
2013-06-03 10:55:00,41.9,40.0,32.24,WNW,286,6.0,14.0,92,0.00,,,0.03,weatherlink.com 1.10,2013-06-03 16:55:00,
2013-06-03 11:10:00,42.0,40.0,32.24,West,267,6.0,10.0,92,0.00,,,0.03,weatherlink.com 1.10,2013-06-03 17:10:00,
2013-06-03 11:25:00,42.2,40.0,32.23,West,279,6.0,14.0,90,0.00,,,0.03,weatherlink.com 1.10,2013-06-03 17:25:00,
2013-06-03 11:40:00,43.4,40.0,32.23,WNW,286,5.0,14.0,89,0.00,,,0.03,weatherlink.com 1.10,2013-06-03 17:40:00,
2013-06-03 11:55:00,43.8,41.0,32.23,West,281,7.0,20.0,91,0.00,,,0.03,weatherlink.com 1.10,2013-06-03 17:55:00,
2013-06-03 12:10:00,43.8,40.0,32.23,WNW,284,3.0,11.0,86,0.00,,,0.03,weatherlink.com 1.10,2013-06-03 18:10:00,
2013-06-03 12:25:00,45.1,41.0,32.23,West,278,5.0,9.0,86,0.00,,,0.03,weatherlink.com 1.10,2013-06-03 18:25:00,
2013-06-03 12:40:00,44.7,39.0,32.24,NW,309,5.0,14.0,81,0.00,,,0.03,weatherlink.com 1.10,2013-06-03 18:40:00,
2013-06-03 12:55:00,44.7,40.0,32.25,WSW,257,18.0,19.0,83,0.00,,,0.03,weatherlink.com 1.10,2013-06-03 18:55:00,
2013-06-03 13:10:00,44.7,40.0,32.24,WNW,282,3.0,10.0,83,0.00,,,0.03,weatherlink.com 1.10,2013-06-03 19:10:00,
2013-06-03 13:26:00,45.9,40.0,32.24,West,281,6.0,11.0,79,0.00,,,0.03,weatherlink.com 1.10,2013-06-03 19:26:00,
2013-06-03 13:41:00,47.1,40.0,32.24,West,280,6.0,7.0,77,0.00,,,0.03,weatherlink.com 1.10,2013-06-03 19:41:00,
2013-06-03 13:56:00,48.9,43.0,32.23,SW,221,6.0,10.0,80,0.00,,,0.03,weatherlink.com 1.10,2013-06-03 19:56:00,
2013-06-03 14:11:00,46.3,40.0,32.24,West,264,4.0,9.0,80,0.00,,,0.03,weatherlink.com 1.10,2013-06-03 20:11:00,
2013-06-03 14:26:00,43.3,40.0,32.26,NNW,329,8.0,15.0,87,0.02,,,0.05,weatherlink.com 1.10,2013-06-03 20:26:00,
2013-06-03 14:41:00,42.0,40.0,32.27,NW,304,3.0,10.0,91,0.04,,,0.07,weatherlink.com 1.10,2013-06-03 20:41:00,
2013-06-03 14:56:00,43.3,39.0,32.26,WNW,286,6.0,10.0,85,0.04,,,0.07,weatherlink.com 1.10,2013-06-03 20:56:00,
2013-06-03 15:11:00,43.8,39.0,32.26,WNW,298,6.0,12.0,82,0.04,,,0.07,weatherlink.com 1.10,2013-06-03 21:11:00,
2013-06-03 15:26:00,44.9,40.0,32.25,WNW,298,4.0,14.0,84,0.01,,,0.07,weatherlink.com 1.10,2013-06-03 21:26:00,
2013-06-03 15:41:00,47.0,40.0,32.25,NW,316,9.0,10.0,76,0.00,,,0.07,weatherlink.com 1.10,2013-06-03 21:41:00,
2013-06-03 15:56:00,46.1,41.0,32.27,WNW,288,9.0,11.0,81,0.00,,,0.07,weatherlink.com 1.10,2013-06-03 21:56:00,
2013-06-03 16:11:00,43.2,40.0,32.26,WNW,298,6.0,12.0,88,0.04,,,0.11,weatherlink.com 1.10,2013-06-03 22:11:00,
2013-06-03 16:41:00,48.0,42.0,32.26,West,276,2.0,11.0,79,0.04,,,0.11,weatherlink.com 1.10,2013-06-03 22:41:00,
2013-06-03 16:56:00,48.2,43.0,32.25,WSW,257,2.0,12.0,83,0.04,,,0.11,weatherlink.com 1.10,2013-06-03 22:56:00,
2013-06-03 17:11:00,45.4,42.0,32.26,North,5,12.0,17.0,87,0.00,,,0.11,weatherlink.com 1.10,2013-06-03 23:11:00,
2013-06-03 17:26:00,45.0,42.0,32.26,NNW,348,8.0,11.0,90,0.00,,,0.11,weatherlink.com 1.10,2013-06-03 23:26:00,
2013-06-03 17:41:00,45.7,42.0,32.26,NW,324,6.0,10.0,87,0.00,,,0.11,weatherlink.com 1.10,2013-06-03 23:41:00,
2013-06-03 17:56:00,49.4,43.0,32.26,West,262,5.0,11.0,78,0.00,,,0.11,weatherlink.com 1.10,2013-06-03 23:56:00,
2013-06-03 18:26:00,48.6,41.0,32.27,WNW,283,5.0,12.0,74,0.00,,,0.11,weatherlink.com 1.10,2013-06-04 00:26:00,
2013-06-03 18:41:00,46.7,40.0,32.27,NW,306,5.0,15.0,77,0.00,,,0.11,weatherlink.com 1.10,2013-06-04 00:41:00,
2013-06-03 18:56:00,46.1,40.0,32.27,WNW,283,4.0,8.0,80,0.00,,,0.11,weatherlink.com 1.10,2013-06-04 00:56:00,
2013-06-03 19:26:00,46.4,43.0,32.29,NNW,343,8.0,13.0,86,0.00,,,0.11,weatherlink.com 1.10,2013-06-04 01:26:00,
2013-06-03 19:41:00,43.7,40.0,32.29,North,355,5.0,11.0,88,0.00,,,0.11,weatherlink.com 1.10,2013-06-04 01:41:00,
2013-06-03 19:56:00,43.0,39.0,32.30,NNW,344,10.0,14.0,86,0.00,,,0.11,weatherlink.com 1.10,2013-06-04 01:56:00,
2013-06-03 20:26:00,44.3,39.0,32.30,NNW,331,10.0,13.0,83,0.00,,,0.11,weatherlink.com 1.10,2013-06-04 02:26:00,
2013-06-03 20:41:00,43.7,39.0,32.30,NNW,344,6.0,14.0,84,0.00,,,0.11,weatherlink.com 1.10,2013-06-04 02:41:00,
2013-06-03 20:56:00,43.1,39.0,32.31,North,360,8.0,12.0,85,0.00,,,0.11,weatherlink.com 1.10,2013-06-04 02:56:00,
2013-06-03 21:11:00,42.3,39.0,32.31,NNE,28,5.0,11.0,89,0.00,,,0.11,weatherlink.com 1.10,2013-06-04 03:11:00,
2013-06-03 21:26:00,41.9,39.0,32.31,North,355,3.0,9.0,89,0.00,,,0.11,weatherlink.com 1.10,2013-06-04 03:26:00,
2013-06-03 21:41:00,42.0,39.0,32.32,North,11,6.0,8.0,88,0.00,,,0.11,weatherlink.com 1.10,2013-06-04 03:41:00,
2013-06-03 21:56:00,42.8,38.0,32.32,North,360,5.0,8.0,84,0.00,,,0.11,weatherlink.com 1.10,2013-06-04 03:56:00,
2013-06-03 22:11:00,42.9,38.0,32.33,North,355,6.0,8.0,83,0.00,,,0.11,weatherlink.com 1.10,2013-06-04 04:11:00,
2013-06-03 22:26:00,42.9,38.0,32.33,North,355,7.0,10.0,84,0.00,,,0.11,weatherlink.com 1.10,2013-06-04 04:26:00,
2013-06-03 22:41:00,42.5,38.0,32.33,North,355,7.0,9.0,85,0.00,,,0.11,weatherlink.com 1.10,2013-06-04 04:41:00,
2013-06-03 22:56:00,42.5,38.0,32.33,North,5,6.0,11.0,83,0.00,,,0.11,weatherlink.com 1.10,2013-06-04 04:56:00,
2013-06-03 23:11:00,42.6,38.0,32.33,NE,34,10.0,12.0,83,0.00,,,0.11,weatherlink.com 1.10,2013-06-04 05:11:00,
2013-06-03 23:26:00,42.2,38.0,32.33,NNE,25,5.0,9.0,85,0.00,,,0.11,weatherlink.com 1.10,2013-06-04 05:26:00,
2013-06-03 23:41:00,42.2,38.0,32.33,NE,39,7.0,10.0,86,0.00,,,0.11,weatherlink.com 1.10,2013-06-04 05:41:00,
2013-06-03 23:56:00,41.8,39.0,32.33,NNE,25,6.0,10.0,88,0.00,,,0.11,weatherlink.com 1.10,2013-06-04 05:56:00,